Find Starlink 2569

NORAD ID: 48277 Int'l Des: 2021-036 Owner: SPXS Country: US Constellation: starlink operational
LEOCIRCULARSTARLINK_TYPE

当前视图

正在加载3D地球...

About Starlink 2569

Starlink 2569 (NORAD 48277) is a starlink constellation satellite (v1.0) launched Apr 29, 2021 by SPXS of US. It operates in LEO, CIRCULAR, STARLINK_TYPE orbit with a mass of 260.00 kg.

即将过境

Passes for default location (London). Set your location on the main map for personalized predictions.

高度历史

Loading altitude history...

两行轨道根数

1 48277U 21036B 26263.90640687 .00028431 00000-0 72416-3 0 9990
2 48277 53.1209 181.4031 0004388 97.0129 263.1374 15.39355877299222
Epoch: Sep 20, 2026 • Age: 9 hours

当前状态

高度 463.3 km
远地点 / 近地点 N/A
速度 7.63 km/s
星下点 -40.12°S, 59.84°W
发射日期 Apr 29, 2021
运行时间 5.3 years
类型 internet

技术详情

分类 Payload
质量 260.00 kg
干质量 248.00 kg
长度 0.20 m
跨度 9.00 m
形状 ? Box + pan
制造商 SPXS
平台类型 Starlink
阶段状态 In Orbit
所有者/国家 SPXS/US

Most Searched